Zurück zum Katalog

COSMOS 2251 DEB

AktivLEO
NORAD 34611·DEBRIS·🇷🇺 Russia

Gestartet Jun 16, 1993 von Plesetsk Cosmodrome

Loading…

Nächste Überflüge (nächste 24 Stunden)

TLE

AktuellSource: Space-Track

Epoche: Sep 14, 2026, 21:33 UTC

1 34611U 93036WG  26257.89804498  .00003959  00000-0  60562-3 0  9996
2 34611  74.0501 284.3489 0024072 258.9893 159.7756 14.73901857924540

Verfolge COSMOS 2251 DEB in Echtzeit mit AllMySat

Download on the App Store